017  
ASUS46 KSEW 260910  
RWRWA  
 
WASHINGTON REGIONAL WEATHER ROUNDUP  
NATIONAL WEATHER SERVICE SEATTLE WA  
200 AM PDT THU APR 26 2018  
 
NOTE:"FAIR" INDICATES FEW OR NO CLOUDS BELOW 12,000 FEET WITH NO  
SIGNIFICANT WEATHER AND/OR S TO VISIBILITY
.  
 
WAZ507-509-555>559-261000-  
SEATTLE, TACOMA, EVERETT, AND VICINITY  
 
CITY SKY/WX TMP DP RH WIND PRES REMARKS
 
EVERETT CLEAR 54 39 57 CALM 30.06F  
BOEING FIELD CLEAR 58 39 49 CALM 30.05S  
RENTON CLEAR 54 46 74 CALM 30.04S  
SEATAC AIRPORT PTCLDY 54 39 57 N8 30.05S  
JBLM-MCCHORD CLEAR 46 45 99 S3 30.05S  
PUYALLUP FAIR 48 48 100 CALM 30.05S  
BREMERTON CLEAR 58 37 45 NE9 30.04F  
JBLM-FT LEWIS CLEAR 46 45 97 SE8 30.04S  
TACOMA NARROWS CLEAR 54 40 59 CALM 30.05F  

 
 
WAZ001-503-506-510-514-515-261000-  
NORTH INTERIOR  
 
CITY SKY/WX TMP DP RH WIND PRES REMARKS
 
BELLINGHAM CLEAR 46 44 93 CALM 30.06S  
FRIDAY HARBOR CLEAR 46 37 71 CALM 30.07F  
EASTSOUND CLEAR 50 43 76 CALM 30.06S  
PORT ANGELES CLEAR 53 39 59 SW10 30.07F  
EDIZ HOOK FAIR 51 40 66 CALM 30.06F  
PORT TOWNSEND FAIR 43 41 93 CALM 30.07S  
NAS WHIDBEY PTCLDY 47 39 74 CALM 30.10S  
ARLINGTON CLEAR 44 41 89 N3 30.07S  
BURLINGTON CLEAR 55 41 58 NE6 30.07S  

 
 
WAZ020-022-039-040-504-511-512-261000-  
SOUTHWEST INTERIOR  
 
CITY SKY/WX TMP DP RH WIND PRES REMARKS
 
SHELTON CLEAR 43 39 86 CALM 30.03S  
OLYMPIA CLEAR 46 40 79 SE3 30.05S  
CHEHALIS N/A 48 46 93 CALM 30.04F  
KELSO CLEAR 53 45 74 CALM 30.02F  
VANCOUVER CLEAR 54 46 74 CALM 29.99S  
SCAPPOOSE, OR CLEAR 55 44 66 CALM 29.99S  
PORTLAND, OR CLEAR 58 46 64 CALM 29.99F  

 
 
WAZ021-516-517-261000-  
WASHINGTON COAST  
 
CITY SKY/WX TMP DP RH WIND PRES REMARKS
 
FORKS CLEAR 48 39 71 CALM 30.03S  
HOQUIAM CLEAR 55 45 68 NE9 30.01S  
ASTORIA, OR FOG 49 49 100 S3 30.01S VSB 3/4  

 
 
WAZ019-023-024-040-567>569-261000-  
CASCADE MOUNTAINS AND COLUMBIA GORGE  
 
CITY SKY/WX TMP DP RH WIND PRES REMARKS
 
STAMPEDE PASS NOT AVBL  
TROUTDALE, OR CLEAR 68 41 37 E15 29.98S  
HOOD RIVER, OR SUNNY 50 43 76 CALM 30.10S  
THE DALLES, OR CLEAR 50 42 74 E5 30.09S  

 
 
WAZ026-027-041>044-520-521-261000-  
EAST SLOPES  
 
CITY SKY/WX TMP DP RH WIND PRES REMARKS
 
OMAK CLEAR 50 33 52 NW12 30.14F  
WENATCHEE CLEAR 54 35 48 NW10 30.13S  
ELLENSBURG CLEAR 44 34 67 E3 30.13S  
YAKIMA CLEAR 45 37 73 W7 30.12S  
SUNNYSIDE ARPT SUNNY 42 37 82 CALM 30.10S  
YAKIMA TC FAIR 47 34 62 CALM 30.10F  

 
 
WAZ028-034-035-261000-  
COLUMBIA BASIN  
 
CITY SKY/WX TMP DP RH WIND PRES REMARKS
 
EPHRATA CLEAR 58 28 32 NW16 30.10F  
MOSES LAKE CLEAR 45 35 68 N5 30.11S  
PASCO CLEAR 42 39 89 N3 30.10R  
RICHLAND ARPT SUNNY 46 40 80 CALM 30.10R  
HERMISTON, OR CLEAR 43 41 93 SE3 30.08S  

 
 
WAZ036>038-261000-  
NORTHEAST WASHINGTON  
 
CITY SKY/WX TMP DP RH WIND PRES REMARKS
 
SPOKANE GEIGER CLEAR 49 35 58 CALM 30.13S  
SPOKANE FELTS CLEAR 44 34 67 NE3 30.14S  
FAIRCHILD AFB CLEAR 47 32 57 CALM 30.12F  
COEURDALENE,ID CLEAR 40 34 79 NE6 30.15S  
DEER PARK CLEAR 40 29 64 N3 30.14R  

 
 
WAZ029>033-261000-  
SOUTHEAST WASHINGTON  
 
CITY SKY/WX TMP DP RH WIND PRES REMARKS
 
PULLMAN CLEAR 43 36 76 CALM 30.15F  
LEWISTON, ID CLEAR 54 40 59 CALM 30.12S  
WALLA WALLA CLEAR 51 42 71 E7 30.09S  
PENDLETON, OR CLEAR 50 40 68 S9 30.10S  

 
 
 
CLICK HERE TO GO TO PREVIOUS BULLETINS.

The Nexlab WA Page Main Text Page